Temperature
15 15 16 16 13 12 14 15 16 17 17 17 18 17 15 15 16 16 14 14 14 14 14 14 14 14 14 14 14 14 14 14 14 14 14 14 14 14 14 14 14 14 14 14 14 14 14 14 14
15 15 16 15 12 13 14 15 16 16 17 18 17 16 15 14 14 14 14 14 14 14 14 14 14 14 14 14 14 14 14 14 14 14 14 14 14 14 14 14 14 14 14 14 14 14 14 14 14
15 15 15 12 12 13 15 15 15 16 18 18 16 16 15 14 14 14 14 14 14 14 14 14 13 13 14 14 14 14 13 13 14 14 14 14 14 14 13 14 14 14 14 14 14 14 14 14 14
15 15 14 12 13 14 15 15 15 16 17 17 16 14 14 14 14 14 14 14 14 14 14 13 13 13 13 13 13 13 13 13 13 13 13 13 13 13 13 13 14 14 14 14 14 14 14 14 13
14 14 12 12 13 14 14 15 16 16 16 16 15 13 13 14 14 14 14 14 14 13 13 13 13 13 13 13 13 13 13 13 13 13 13 13 13 13 13 13 13 13 13 13 13 13 13 13 13
14 12 11 12 13 14 14 16 16 14 15 15 14 13 13 13 13 13 13 13 13 13 13 13 13 13 13 13 13 13 13 13 13 13 13 13 13 13 13 13 13 13 13 13 13 13 13 13 13
13 10 11 12 13 13 14 15 15 14 14 15 14 12 12 13 13 13 13 13 13 13 13 13 13 13 13 13 13 13 13 13 13 13 13 13 13 13 13 13 13 13 13 13 13 13 13 12 12
13 10 12 12 13 13 14 15 15 14 14 15 15 12 12 13 13 12 12 12 12 12 12 12 12 13 13 13 13 13 12 12 12 12 12 12 12 13 13 13 13 13 12 12 13 12 12 12 12
13 10 11 12 12 13 13 14 14 14 14 14 14 14 14 13 12 12 12 12 12 12 12 12 12 12 12 12 12 12 12 12 12 12 12 12 12 12 12 12 12 12 12 12 12 12 12 12 12
12 9 11 12 12 12 13 13 13 13 13 12 13 13 13 12 12 12 12 12 12 12 12 11 11 11 11 11 12 12 12 12 12 12 12 12 12 12 12 12 12 12 12 12 12 12 12 12 12
10 9 11 12 12 12 12 12 13 12 11 12 12 12 12 12 12 12 12 12 12 12 11 11 11 11 11 11 11 11 11 11 11 11 11 11 12 12 12 12 12 12 12 12 12 11 11 11 11
10 10 11 11 12 12 12 12 12 12 12 13 13 12 12 12 12 12 11 11 11 11 11 11 11 11 11 11 11 11 11 11 11 11 11 11 11 11 11 11 11 11 11 11 11 11 11 11 11
10 10 11 11 11 11 11 11 11 11 12 12 12 12 12 11 11 11 11 11 11 11 11 11 11 11 11 11 11 10 10 10 10 11 10 10 11 11 11 10 10 11 11 11 11 11 11 11 11
9 9 10 10 11 11 10 10 10 11 11 11 11 11 11 11 11 11 11 11 11 11 11 11 10 10 10 10 10 10 10 10 10 10 10 10 10 10 10 10 10 10 10 10 10 10 10 10 10
10 9 9 9 10 10 10 9 9 10 11 11 10 11 11 10 10 10 10 10 10 10 10 10 10 10 10 10 10 10 10 10 10 10 10 10 10 10 9 10 10 10 10 10 10 10 10 10 10
8 8 8 9 9 10 9 9 9 10 10 10 10 10 10 10 10 10 10 10 10 10 10 10 10 9 9 9 9 9 9 9 9 9 9 9 9 9 9 9 9 9 9 9 9 9 9 9 9
7 7 7 8 9 9 8 8 9 9 9 9 9 9 9 10 9 9 9 9 9 9 9 9 9 9 9 9 9 9 9 9 9 8 8 8 8 8 8 8 9 9 9 9 9 9 9 9 9
7 7 7 8 8 8 7 7 8 8 9 8 8 9 9 9 9 9 9 9 9 9 9 9 9 9 8 8 8 8 8 8 8 8 8 8 8 8 8 8 8 8 8 8 8 8 8 8 8
7 7 7 8 8 8 7 7 7 7 7 7 7 8 8 8 8 8 8 8 8 8 8 8 8 8 8 8 8 8 8 8 7 7 7 7 7 7 7 7 7 7 8 8 8 8 8 8 8
7 7 7 7 7 7 6 6 7 7 7 7 7 7 7 7 7 8 8 8 8 8 8 8 7 8 7 7 7 7 7 7 7 7 7 7 7 6 7 7 7 7 7 7 7 7 7 7 7
6 6 6 6 6 6 6 6 6 6 6 7 7 7 7 7 7 7 7 7 7 7 7 7 7 7 7 7 7 7 7 6 6 6 6 6 6 6 6 6 6 6 6 6 7 6 6 6 6
6 6 6 6 5 4 5 5 5 5 5 5 5 6 6 6 6 6 6 6 6 6 6 6 6 6 6 6 6 6 6 6 6 6 5 5 5 5 5 5 5 6 6 6 6 6 6 6 5
5 6 6 5 4 4 4 4 5 4 5 5 4 5 5 6 6 6 6 6 6 6 6 6 6 6 6 6 5 5 5 5 5 5 5 5 5 5 5 5 5 5 5 5 5 5 5 5 5
5 5 4 3 3 4 4 4 4 4 4 4 4 5 5 5 5 5 5 5 5 5 5 5 5 5 5 5 5 5 5 4 4 4 4 4 4 4 4 4 4 4 4 5 5 5 4 4 4
4 3 3 3 2 3 4 3 4 4 4 4 4 4 5 5 5 5 5 5 5 5 4 4 4 4 4 4 4 4 4 4 4 4 4 4 4 4 4 4 4 4 4 4 4 4 4 4 4
3 3 3 4 3 3 3 3 4 4 4 5 5 4 4 5 5 4 4 4 4 4 4 4 4 4 4 4 4 4 4 4 3 3 3 3 3 3 3 3 3 3 3 3 3 3 3 3 3
3 3 3 2 2 2 3 3 3 4 3 3 3 3 4 4 4 4 4 4 4 4 3 3 3 3 3 3 3 3 3 3 3 3 3 2 2 2 2 3 3 3 3 3 3 3 3 3 3
3 2 1 2 3 3 3 2 3 3 3 3 2 2 3 4 4 4 4 4 3 3 3 3 3 3 3 3 3 2 2 2 2 2 2 2 2 2 2 2 2 2 2 2 2 2 2 2 2
2 2 2 1 2 3 3 3 3 3 2 2 2 3 3 4 4 3 3 3 3 3 3 2 2 2 2 2 2 2 2 2 2 2 2 2 2 1 1 2 2 2 2 2 2 2 2 2 2
3 2 1 2 1 1 1 3 3 2 2 2 2 3 3 3 3 3 3 3 3 2 2 2 2 2 2 2 2 1 1 1 1 1 1 1 1 1 1 1 1 1 1 1 1 1 1 1 1
Wind_Speed
9 6 3 4 4 3 4 5 2 1 1 1 2 6 6 4 3 5 3 5 8 7 8 9 10 10 10 9 9 9 9 9 9 9 9 8 8 8 8 8 8 8 8 8 8 8 8 8 8
6 2 4 4 4 2 5 4 4 3 4 2 3 5 5 3 2 6 4 6 9 9 8 8 10 10 10 9 9 8 8 8 8 8 8 8 7 7 7 7 7 7 7 7 7 7 7 7 6
4 2 4 4 4 6 5 3 5 3 1 2 3 4 4 4 4 4 5 9 9 8 8 8 10 9 9 9 8 8 7 7 7 7 7 7 7 7 6 6 6 6 6 6 6 5 6 6 5
3 4 4 3 5 6 5 3 3 2 1 2 4 4 2 0 4 5 8 9 10 8 8 9 10 9 8 8 7 7 7 7 7 7 6 6 6 6 5 5 5 6 6 5 5 4 5 4 4
3 4 2 2 6 4 3 3 2 1 0 1 3 4 1 3 4 8 9 10 10 7 8 9 9 9 8 7 7 7 6 6 6 6 5 5 5 5 5 4 4 5 5 4 4 4 3 3 3
3 3 3 5 6 4 3 3 1 0 0 1 3 4 2 0 6 8 9 9 9 8 7 8 8 8 7 7 6 6 6 5 5 5 4 4 5 5 4 4 3 3 4 4 3 3 2 2 2
4 4 5 5 4 4 3 1 1 1 1 1 4 5 2 1 4 7 8 8 8 8 7 6 6 6 6 6 5 5 5 5 4 4 4 4 4 4 4 3 3 2 2 3 2 2 2 1 1
4 3 3 3 4 5 2 0 1 2 2 1 4 7 5 5 5 7 8 7 7 6 6 5 5 5 5 5 5 5 4 4 3 3 3 3 3 3 2 2 2 1 1 1 2 2 1 0 0
3 2 5 5 5 3 1 0 2 0 2 1 1 3 4 7 8 8 7 5 5 4 3 4 4 4 4 4 4 4 4 3 2 2 3 3 2 2 1 1 1 0 0 0 1 1 1 1 0
3 4 7 4 3 3 1 1 1 1 1 1 2 2 5 8 8 8 7 6 5 4 3 3 3 3 3 2 3 3 2 2 1 1 2 2 2 2 1 1 0 0 1 1 1 2 1 1 1
4 5 4 2 2 2 1 1 1 2 3 4 5 6 6 6 7 7 7 6 6 5 4 3 3 3 3 2 2 1 1 1 1 2 2 2 3 3 3 2 1 1 0 1 1 2 2 2 2
3 3 3 2 2 1 2 1 1 3 5 5 6 8 7 7 7 7 7 6 5 4 4 3 3 3 3 3 2 2 1 1 1 1 2 2 2 2 2 2 2 1 1 1 1 2 2 2 2
3 3 3 3 3 3 2 3 3 4 4 2 3 5 6 6 4 4 5 5 5 4 3 3 3 3 3 2 2 2 1 1 1 1 1 2 1 0 1 1 1 1 1 1 1 2 2 2 2
2 2 2 3 3 3 3 5 3 5 3 3 4 4 5 6 5 4 4 4 4 4 4 3 3 3 3 2 2 1 1 1 1 1 1 1 1 1 0 1 1 1 2 1 1 2 2 2 2
0 1 3 4 4 2 1 5 5 4 3 3 3 3 3 4 4 5 5 5 5 4 4 4 3 2 2 2 2 2 1 2 1 1 1 1 1 1 1 1 1 2 2 2 1 2 1 2 2
2 1 3 4 3 2 4 7 5 3 4 4 3 3 3 3 3 4 4 4 3 4 4 3 3 2 2 2 2 1 1 2 1 1 1 1 1 1 0 1 2 2 2 1 1 1 1 2 2
1 2 4 5 3 2 5 7 5 3 4 5 4 4 3 2 2 3 3 3 3 4 4 3 2 3 2 2 1 1 1 1 1 1 1 1 1 1 1 1 2 1 1 1 1 1 1 2 3
4 4 5 6 3 2 5 8 7 5 5 6 5 5 4 4 4 3 3 3 3 3 3 3 2 2 2 1 1 1 0 1 1 1 2 2 2 1 1 1 2 1 1 1 1 1 1 2 2
3 4 6 5 3 3 8 10 9 6 4 5 5 6 5 4 3 2 2 2 2 2 3 2 2 1 2 1 1 1 1 2 1 1 2 2 2 2 1 1 2 2 2 2 2 1 2 1 1
3 5 5 5 3 3 6 10 9 7 7 8 8 7 6 3 1 1 1 1 2 2 2 2 2 2 2 2 2 2 1 1 2 1 1 2 2 2 2 1 2 2 2 2 2 1 1 1 0
5 5 5 4 5 3 3 7 6 4 3 3 4 5 5 5 5 3 1 1 1 1 2 2 2 2 2 2 1 1 1 1 1 1 1 2 2 2 2 2 2 2 2 3 3 3 3 2 2
5 3 3 3 2 4 1 5 7 4 4 4 4 4 4 4 3 2 1 1 1 2 2 2 2 2 2 2 2 2 2 2 2 2 2 2 2 2 2 2 2 2 2 3 3 3 2 3 3
3 2 2 2 2 3 2 4 7 2 5 7 5 5 4 3 3 2 2 2 2 1 1 1 1 2 2 2 3 3 2 2 2 2 2 2 2 3 3 3 2 2 3 3 3 3 3 3 3
1 3 3 3 2 3 5 5 7 4 6 5 4 4 4 3 2 2 1 0 0 1 1 1 0 1 2 2 3 3 3 2 2 2 2 3 2 2 3 3 2 2 2 3 4 4 4 4 4
3 3 3 4 2 6 3 4 8 5 5 5 6 5 4 3 3 2 2 1 1 1 1 1 1 1 2 2 2 3 3 3 4 3 3 3 2 2 3 3 2 3 3 3 3 3 4 4 4
2 4 4 4 4 5 2 6 6 4 3 2 2 2 2 2 3 3 3 2 2 2 2 1 1 2 2 2 2 3 3 3 3 3 3 3 3 3 3 3 3 3 3 3 3 3 4 4 4
2 2 3 3 1 3 5 6 6 2 2 1 0 1 2 3 3 3 3 3 3 3 3 3 2 2 2 2 2 2 2 3 3 3 2 3 3 3 3 3 3 3 3 3 3 3 4 4 4
2 3 3 3 2 4 5 5 4 4 5 4 3 3 4 3 3 3 3 3 3 3 2 2 2 3 2 2 2 2 2 2 2 2 2 2 3 2 3 3 3 3 3 3 3 3 3 3 3
2 1 2 2 3 3 4 6 4 5 5 5 6 6 5 5 5 4 4 3 2 1 1 1 2 2 2 2 2 2 2 1 1 2 2 2 2 2 3 3 3 3 3 3 3 3 3 3 4
4 4 5 3 4 3 3 7 4 4 3 3 4 4 4 4 4 3 3 2 2 2 2 2 2 2 2 1 1 1 1 1 1 2 2 2 2 2 3 3 3 3 3 2 3 3 3 3 4
Wind_Direction
334 349 66 60 64 64 235 244 222 173 138 232 94 100 107 108 131 154 161 150 133 132 129 127 121 116 113 108 104 103 102 101 101 99 100 103 105 103 104 103 99 96 95 94 90 87 86 86 85
340 13 59 66 111 188 252 243 217 221 193 150 82 90 83 83 92 116 135 141 130 126 124 125 121 118 114 111 107 103 104 101 99 101 101 101 105 105 102 103 101 98 96 96 94 91 90 89 87
335 58 90 93 155 197 219 217 210 228 248 105 67 55 105 134 139 148 159 138 120 116 119 124 120 119 118 114 110 106 102 103 102 99 101 102 101 103 101 100 102 103 101 99 100 100 98 94 87
50 52 65 106 218 228 213 218 208 195 338 55 104 69 63 46 162 155 138 125 118 116 118 125 122 119 117 117 116 113 106 102 104 103 100 100 101 98 102 104 109 108 106 104 104 106 106 100 92
65 87 100 221 234 245 240 254 223 180 148 53 105 110 73 340 114 125 125 123 123 120 117 125 124 122 119 117 116 117 111 105 102 102 104 101 98 99 94 106 118 120 119 113 106 113 112 106 101
67 85 141 217 229 242 265 264 229 145 186 73 106 123 162 11 121 128 125 126 127 125 117 121 123 122 122 123 120 113 111 110 108 105 106 107 102 99 99 93 113 129 130 124 119 125 123 110 108
124 130 188 210 218 237 252 269 172 188 196 217 139 128 167 212 151 130 121 121 119 120 113 107 117 122 126 127 126 122 116 111 111 111 104 99 101 98 100 98 93 107 134 141 142 142 137 125 114
137 129 198 215 204 228 262 341 173 179 227 291 125 147 187 201 159 120 110 110 111 114 117 112 108 113 118 129 132 131 128 118 109 109 104 93 93 94 98 102 94 104 113 160 172 180 186 212 303
102 121 208 210 197 210 214 130 313 325 107 38 83 170 183 154 133 117 109 105 112 117 126 129 127 121 123 133 135 141 142 132 116 122 105 85 78 93 102 114 107 81 128 233 221 218 242 287 332
114 190 217 215 188 181 204 184 253 47 26 16 31 56 114 133 138 142 144 148 150 158 163 154 150 150 145 149 135 141 144 140 134 131 107 74 63 59 60 111 124 292 258 266 270 262 282 307 320
164 202 220 246 237 196 216 267 260 161 230 219 190 168 148 147 151 159 163 161 166 168 168 170 170 160 158 150 127 119 107 103 98 110 100 81 68 54 45 45 33 4 22 5 324 326 322 307 290
190 237 233 250 278 242 212 215 275 223 232 226 184 164 157 162 173 177 175 171 164 157 169 172 162 151 155 148 141 135 115 101 98 124 111 100 78 51 46 37 20 16 9 7 354 335 313 301 283
219 242 255 261 264 259 261 244 245 255 245 193 150 152 162 167 173 183 175 162 151 155 166 175 165 160 158 151 157 139 153 160 155 149 134 127 108 87 29 7 9 349 343 346 327 311 294 285 279
219 244 276 271 260 248 243 268 251 253 206 153 156 173 172 173 176 180 179 171 173 175 179 177 171 170 158 164 166 167 172 169 159 164 197 157 145 148 272 297 312 315 300 299 293 291 277 271 275
52 344 307 270 248 226 199 276 242 234 170 166 184 177 166 173 169 177 191 186 187 188 185 179 182 164 159 172 171 166 172 156 162 194 214 194 175 187 233 249 282 296 294 299 321 319 309 293 289
41 55 276 273 219 197 171 249 256 222 170 188 197 185 171 190 190 193 191 184 182 178 181 189 183 170 176 174 161 167 167 159 173 198 203 213 202 216 221 248 266 290 294 296 283 288 293 292 290
37 232 247 269 223 201 201 242 260 246 186 199 208 213 204 214 226 215 199 185 176 173 175 178 177 181 186 181 158 150 166 178 193 198 198 213 211 220 211 254 261 279 293 271 275 297 268 274 291
221 231 248 246 253 236 244 258 265 249 210 206 215 224 221 218 229 219 204 185 168 161 156 158 166 177 173 154 125 124 152 218 208 205 208 208 213 227 230 252 263 269 265 256 237 259 288 264 279
223 237 259 262 276 258 248 261 265 250 225 223 227 227 227 227 235 216 195 172 142 140 142 146 157 164 142 149 165 175 219 232 220 229 216 213 222 227 236 249 253 256 240 241 233 239 269 283 293
250 261 266 287 301 268 264 268 265 241 227 221 223 225 218 221 229 216 175 123 140 159 165 156 174 180 181 193 193 189 199 235 228 233 236 229 230 238 242 232 238 242 241 248 236 221 240 274 260
254 234 241 265 318 315 301 291 264 258 235 228 225 224 217 207 201 201 192 176 137 159 194 195 197 196 200 196 156 85 61 7 335 242 237 248 236 242 251 245 247 252 232 233 234 223 223 238 256
258 243 237 257 298 279 213 280 276 254 258 247 244 235 223 207 192 188 173 176 197 218 223 219 205 197 198 175 158 157 193 236 255 246 252 268 253 250 255 246 239 247 247 242 237 236 240 216 236
241 275 253 241 210 287 247 236 282 287 257 257 246 234 216 205 187 183 184 199 216 228 238 248 227 201 190 177 177 174 206 238 272 271 262 266 264 258 257 248 238 236 242 247 245 241 243 231 230
284 20 25 46 86 266 229 202 274 244 239 252 241 227 214 204 188 183 186 150 242 309 319 316 307 234 203 186 187 181 197 221 249 266 255 260 262 265 266 259 245 247 245 242 244 233 231 236 236
63 77 18 351 335 254 225 209 251 259 253 231 225 224 216 197 188 192 196 202 225 254 282 286 271 268 233 201 205 202 204 207 224 240 242 251 253 260 267 275 254 247 247 248 246 232 231 233 230
193 147 167 217 241 279 284 236 255 273 276 224 190 186 191 201 207 215 219 214 220 227 236 243 253 263 250 228 224 219 211 212 233 241 237 244 249 251 257 258 261 264 256 252 247 241 239 238 235
153 195 174 153 240 272 269 283 302 285 320 337 158 203 235 236 225 226 232 226 230 231 238 232 237 258 252 241 239 229 221 221 237 248 240 250 257 263 261 261 264 268 266 252 240 244 243 241 242
150 153 109 146 210 262 282 275 264 262 264 267 253 245 251 255 249 238 236 238 238 232 255 257 242 254 267 249 247 252 234 229 228 239 249 261 270 270 272 270 269 270 269 267 251 249 248 243 249
149 153 157 172 199 204 266 269 238 227 231 233 241 240 238 242 248 238 236 237 239 242 241 243 252 265 273 256 251 251 246 238 236 245 256 260 270 267 268 271 273 270 266 268 262 254 255 250 257
193 188 164 183 240 215 228 266 272 235 236 227 246 250 248 244 248 236 233 212 212 222 231 232 246 254 265 268 270 272 255 246 245 259 268 268 268 267 269 271 273 276 275 268 260 267 267 257 259
Height
1500 1501 1502 1504 1508 1516 1514 1506 1500 1498 1497 1497 1496 1496 1498 1502 1505 1512 1509 1508 1510 1512 1514 1515 1516 1517 1518 1518 1519 1520 1520 1521 1521 1521 1522 1522 1522 1523 1523 1523 1523 1524 1524 1524 1525 1525 1525 1525 1525
1500 1501 1503 1504 1512 1519 1513 1503 1500 1497 1496 1496 1497 1498 1499 1502 1504 1505 1506 1508 1510 1512 1513 1514 1515 1516 1517 1518 1518 1519 1520 1520 1521 1521 1521 1522 1522 1522 1522 1523 1523 1523 1524 1524 1524 1524 1524 1525 1525
1499 1500 1503 1505 1511 1513 1505 1498 1497 1495 1495 1495 1497 1499 1500 1503 1503 1505 1506 1507 1509 1511 1513 1514 1515 1516 1516 1517 1518 1518 1519 1520 1520 1520 1521 1521 1521 1521 1522 1522 1522 1523 1523 1523 1523 1524 1524 1524 1524
1499 1501 1502 1508 1507 1503 1499 1496 1495 1495 1494 1495 1497 1500 1502 1504 1504 1504 1505 1507 1508 1510 1512 1513 1514 1515 1516 1516 1517 1517 1518 1519 1519 1520 1520 1520 1520 1520 1521 1521 1521 1522 1522 1522 1523 1523 1523 1523 1524
1499 1500 1505 1509 1504 1499 1496 1495 1494 1494 1495 1496 1497 1500 1502 1504 1504 1504 1505 1506 1508 1509 1511 1512 1513 1514 1515 1515 1516 1516 1517 1518 1518 1518 1519 1519 1519 1519 1520 1520 1520 1521 1521 1521 1522 1522 1522 1522 1523
1498 1499 1508 1508 1501 1497 1495 1494 1494 1494 1495 1495 1497 1499 1501 1503 1503 1504 1505 1506 1507 1509 1510 1511 1512 1513 1514 1514 1515 1515 1516 1516 1517 1517 1517 1518 1518 1518 1518 1519 1519 1519 1520 1520 1520 1521 1521 1521 1521
1497 1501 1504 1502 1500 1498 1494 1494 1494 1494 1494 1495 1496 1499 1500 1502 1503 1503 1504 1505 1507 1508 1509 1510 1511 1512 1512 1513 1514 1514 1514 1515 1515 1516 1516 1516 1516 1516 1517 1517 1517 1518 1518 1519 1519 1519 1520 1520 1520
1495 1499 1500 1500 1498 1496 1493 1493 1493 1494 1494 1495 1495 1496 1498 1500 1501 1502 1503 1505 1506 1507 1508 1509 1509 1510 1511 1511 1512 1513 1513 1513 1514 1514 1514 1514 1514 1515 1515 1515 1516 1516 1517 1517 1517 1518 1518 1518 1518
1494 1501 1501 1497 1495 1494 1492 1493 1493 1493 1493 1494 1494 1494 1495 1498 1500 1501 1502 1503 1504 1505 1506 1507 1508 1508 1509 1510 1510 1511 1511 1512 1512 1512 1512 1513 1513 1513 1513 1513 1514 1514 1515 1515 1515 1516 1516 1516 1516
1493 1499 1495 1491 1491 1491 1491 1492 1492 1492 1492 1493 1493 1493 1495 1496 1498 1498 1499 1500 1501 1503 1504 1505 1506 1507 1507 1508 1508 1508 1509 1509 1510 1510 1510 1510 1511 1511 1511 1511 1512 1512 1512 1512 1513 1513 1513 1513 1514
1492 1494 1491 1490 1490 1490 1490 1491 1491 1491 1492 1491 1491 1492 1493 1495 1496 1496 1497 1498 1499 1501 1502 1503 1504 1505 1505 1506 1506 1506 1507 1507 1507 1508 1508 1508 1508 1508 1509 1509 1509 1509 1509 1510 1510 1510 1510 1511 1511
1491 1491 1490 1490 1489 1489 1489 1490 1490 1489 1489 1489 1489 1490 1491 1493 1494 1495 1495 1497 1498 1499 1500 1501 1501 1502 1503 1503 1504 1504 1504 1505 1505 1505 1505 1506 1506 1506 1506 1506 1506 1507 1507 1507 1507 1507 1507 1508 1508
1490 1490 1489 1489 1489 1489 1488 1488 1488 1487 1487 1487 1488 1489 1489 1491 1492 1493 1494 1495 1496 1496 1497 1498 1499 1500 1500 1501 1501 1502 1502 1502 1502 1503 1503 1503 1503 1503 1503 1503 1503 1504 1504 1504 1504 1504 1504 1504 1504
1489 1489 1489 1488 1487 1487 1488 1487 1487 1484 1485 1486 1486 1487 1488 1488 1490 1491 1492 1492 1493 1494 1494 1495 1496 1497 1498 1498 1498 1499 1499 1500 1500 1500 1500 1500 1500 1500 1500 1500 1501 1501 1501 1501 1501 1501 1501 1501 1501
1489 1490 1489 1487 1486 1486 1487 1487 1485 1483 1484 1484 1485 1485 1486 1487 1487 1488 1489 1490 1490 1491 1492 1492 1493 1494 1495 1495 1495 1496 1496 1496 1497 1497 1497 1497 1497 1497 1497 1497 1497 1498 1498 1498 1498 1498 1497 1497 1497
1489 1491 1493 1487 1485 1485 1490 1488 1482 1482 1482 1483 1483 1484 1484 1485 1485 1486 1486 1487 1488 1488 1489 1490 1490 1491 1492 1492 1492 1492 1493 1493 1493 1494 1494 1494 1494 1494 1494 1494 1494 1494 1495 1494 1494 1494 1494 1494 1493
1493 1495 1493 1488 1484 1484 1486 1485 1481 1480 1480 1481 1481 1482 1482 1482 1483 1483 1484 1484 1484 1485 1485 1486 1487 1487 1488 1489 1489 1489 1489 1490 1490 1490 1490 1490 1490 1491 1491 1491 1491 1491 1491 1491 1491 1491 1490 1490 1489
1494 1494 1491 1488 1484 1484 1485 1482 1479 1478 1478 1478 1478 1479 1479 1479 1479 1480 1481 1481 1481 1482 1482 1482 1483 1484 1485 1485 1485 1486 1486 1486 1486 1487 1487 1487 1487 1487 1487 1487 1488 1488 1487 1487 1487 1487 1487 1487 1486
1489 1490 1489 1485 1483 1484 1483 1480 1476 1475 1476 1475 1475 1476 1476 1476 1476 1477 1477 1477 1478 1478 1479 1479 1480 1480 1481 1481 1481 1482 1482 1482 1483 1483 1483 1483 1484 1484 1484 1484 1484 1484 1484 1484 1483 1483 1483 1483 1482
1488 1489 1488 1485 1483 1483 1482 1478 1473 1472 1471 1471 1471 1471 1472 1472 1473 1473 1474 1474 1474 1475 1476 1476 1477 1477 1477 1478 1478 1478 1478 1479 1479 1480 1480 1480 1480 1480 1480 1480 1480 1480 1480 1480 1480 1480 1479 1479 1479
1487 1489 1487 1486 1484 1483 1483 1478 1472 1469 1468 1468 1468 1468 1468 1469 1469 1469 1470 1471 1471 1472 1472 1473 1473 1474 1474 1475 1475 1475 1476 1475 1475 1475 1476 1476 1476 1476 1476 1476 1476 1476 1476 1476 1476 1476 1476 1475 1475
1487 1485 1485 1485 1489 1490 1487 1487 1472 1469 1468 1466 1466 1465 1465 1466 1466 1467 1468 1468 1469 1469 1470 1470 1470 1470 1471 1471 1471 1471 1471 1471 1471 1471 1471 1472 1472 1472 1472 1472 1472 1472 1472 1472 1472 1472 1472 1472 1471
1486 1484 1484 1485 1489 1492 1489 1491 1475 1470 1468 1465 1463 1462 1463 1464 1464 1465 1466 1466 1467 1467 1467 1467 1467 1467 1467 1467 1468 1468 1468 1468 1468 1467 1467 1468 1468 1468 1468 1468 1468 1468 1468 1468 1468 1468 1468 1468 1468
1485 1486 1487 1490 1493 1495 1487 1489 1477 1471 1465 1462 1461 1460 1461 1462 1463 1464 1464 1464 1464 1464 1464 1464 1463 1463 1463 1464 1464 1464 1464 1464 1465 1464 1463 1464 1464 1464 1464 1464 1464 1464 1464 1464 1464 1464 1464 1464 1464
1487 1493 1500 1499 1502 1492 1484 1485 1474 1464 1461 1460 1459 1459 1459 1460 1461 1461 1462 1462 1462 1462 1462 1461 1461 1460 1460 1460 1460 1461 1461 1461 1461 1460 1460 1460 1460 1460 1460 1460 1460 1460 1460 1460 1460 1460 1460 1460 1459
1489 1491 1500 1500 1500 1491 1483 1481 1469 1462 1459 1458 1458 1458 1459 1459 1459 1460 1459 1459 1459 1459 1459 1459 1458 1457 1457 1457 1457 1457 1457 1457 1457 1457 1456 1456 1456 1456 1456 1456 1456 1455 1455 1455 1455 1455 1455 1455 1455
1489 1492 1492 1498 1500 1496 1485 1478 1467 1461 1459 1458 1458 1458 1458 1458 1458 1458 1458 1457 1457 1457 1457 1456 1455 1455 1454 1454 1454 1454 1453 1453 1453 1453 1453 1452 1452 1452 1452 1452 1451 1451 1451 1451 1450 1450 1450 1450 1450
1487 1489 1495 1496 1494 1489 1483 1480 1471 1463 1461 1459 1458 1457 1456 1456 1456 1456 1455 1455 1455 1454 1454 1454 1453 1452 1452 1451 1451 1450 1450 1450 1450 1450 1449 1449 1448 1448 1448 1447 1447 1446 1446 1446 1446 1446 1446 1446 1446
1489 1490 1491 1495 1493 1491 1487 1476 1461 1460 1458 1457 1456 1455 1455 1454 1454 1454 1453 1453 1453 1453 1452 1452 1451 1450 1449 1448 1448 1447 1446 1446 1446 1446 1445 1445 1444 1444 1444 1443 1443 1442 1442 1442 1442 1442 1441 1441 1441
1484 1486 1490 1493 1493 1493 1489 1476 1457 1457 1455 1455 1455 1454 1453 1453 1452 1452 1451 1451 1451 1450 1449 1449 1448 1447 1446 1445 1445 1443 1443 1443 1443 1442 1442 1441 1440 1440 1440 1439 1439 1438 1438 1438 1438 1437 1437 1437 1437